カタログに戻る

ZHONGYUAN-2

運用中科学SSO
NORAD 61869·PAYLOAD·🇨🇳 China
この衛星名は、まだ公式ソースで確認されていません。

打ち上げ Nov 9, 2024 から Jiuquan Satellite Launch Center

Loading…

次のパス (今後24時間)

TLE

最新Source: Space-Track

元期: Sep 14, 2026, 22:38 UTC

1 61869U 24203A   26257.94324957  .00014019  00000-0  45281-3 0  9994
2 61869  97.4111 328.2375 0010857  16.2470 343.9117 15.32164543102696

AllMySatでZHONGYUAN-2をリアルタイム追跡

Download on the App Store